User: anonymous   Login
Location: Unspecified
(0.0000°N, 0.0000°E)
Time: 12:47:04
(UTC+00:00)
Language:

SYRACUSE 3B - Orbit

View from above orbital plane
View from above orbital plane
View from above satellite
View from above satellite

Ground track
Ground track

The orbit data is extracted from the following two-line orbital elements,

1 29273U 06033B   18200.42827023 -.00000062 +00000-0 +00000-0 0  9993
2 29273 000.0219 058.8071 0004383 047.0558 340.2790 01.00272076043741
Epoch (UTC): 19 July 2018 10:16:42
Eccentricity: 0.0004383
inclination: 0.0219°
perigee height: 35767 km
apogee height: 35804 km
right ascension of ascending node: 58.8071°
argument of perigee: 47.0558°
revolutions per day: 1.00272076
mean anomaly at epoch: 340.2790°
orbit number at epoch: 4374

The dashed part of the orbit path shows where the satellite is in the earth's shadow,  

DLR